KD8ZVC Weather Reports


time (UTC)temp
C
wind
direction
speed
KPH
gust
KPH
rain 1hr
cm
rain 24hr
cm
rain mn
cm
humidity
%
barometer
mb
20260509005003 26 240 0.0 1.6 0.00 0.00 0.00 44 1009.0
20260509004502 25 200 0.0 1.6 0.00 0.00 0.00 47 1008.9
20260509004004 25 195 0.0 1.6 0.00 0.00 0.00 46 1009.0
20260509003504 25 193 0.0 1.6 0.00 0.00 0.00 44 1009.1
20260509003002 26 221 0.0 3.2 0.00 0.00 0.00 44 1009.1
20260509002503 26 125 0.0 3.2 0.00 0.00 0.00 45 1009.1
20260509002004 26 266 0.0 3.2 0.00 0.00 0.00 45 1009.3
20260509001003 27 248 0.0 1.6 0.00 0.00 0.00 44 1009.2
20260509000504 27 226 0.0 1.6 0.00 0.00 0.00 44 1009.2
20260509000006 26 211 0.0 1.6 0.00 0.00 0.00 43 1009.2
20260508235503 26 247 0.0 3.2 0.00 0.00 0.00 44 1009.3
20260508234504 26 195 0.0 3.2 0.00 0.00 0.00 43 1009.2
20260508234002 27 108 0.0 3.2 0.00 0.00 0.00 40 1009.3
20260508233503 27 119 0.0 1.6 0.00 0.00 0.00 41 1009.3
20260508232503 27 149 0.0 1.6 0.00 0.00 0.00 39 1009.4
20260508232006 27 136 0.0 1.6 0.00 0.00 0.00 39 1009.4
20260508231503 27 145 0.0 1.6 0.00 0.00 0.00 39 1009.4
20260508231003 27 146 0.0 1.6 0.00 0.00 0.00 41 1009.4
20260508230503 27 264 0.0 1.6 0.00 0.00 0.00 41 1009.5
20260508230005 26 124 0.0 1.6 0.00 0.00 0.00 38 1009.6
20260508225503 26 233 0.0 1.6 0.00 0.00 0.00 40 1009.6
20260508225004 26 216 0.0 3.2 0.00 0.00 0.00 41 1009.6
20260508224503 26 271 0.0 3.2 0.00 0.00 0.00 43 1009.7
20260508224003 26 143 0.0 3.2 0.00 0.00 0.00 41 1009.8
20260508223504 26 228 0.0 1.6 0.00 0.00 0.00 45 1009.9
20260508222503 25 193 0.0 1.6 0.00 0.00 0.00 48 1010.0
20260508221004 25 115 0.0 3.2 0.00 0.00 0.00 46 1010.2
20260508220503 25 131 0.0 3.2 0.00 0.00 0.00 48 1010.3
20260508220004 25 129 0.0 3.2 0.00 0.00 0.00 46 1010.2
20260508215503 25 129 0.0 1.6 0.00 0.00 0.00 46 1010.4
20260508215004 25 129 0.0 1.6 0.00 0.00 0.00 45 1010.5
20260508214503 24 139 0.0 4.8 0.00 0.00 0.00 47 1010.4
20260508214004 24 134 1.6 6.4 0.00 0.00 0.00 50 1010.7
20260508213504 24 158 1.6 6.4 0.00 0.00 0.00 47 1010.7
20260508213005 24 276 1.6 3.2 0.00 0.00 0.00 48 1010.7
20260508212503 25 131 1.6 4.8 0.00 0.00 0.00 46 1010.8
20260508211004 25 120 1.6 6.4 0.00 0.00 0.00 47 1010.8
20260508210503 26 266 1.6 3.2 0.00 0.00 0.00 50 1010.8
20260508210005 26 115 0.0 6.4 0.00 0.00 0.00 47 1010.8
20260508205503 25 139 0.0 4.8 0.00 0.00 0.00 48 1010.8
20260508204003 26 131 1.6 4.8 0.00 0.00 0.00 46 1010.8
20260508203504 26 243 1.6 3.2 0.00 0.00 0.00 49 1010.7
20260508203004 26 283 1.6 4.8 0.00 0.00 0.00 50 1010.9
20260508202503 26 225 1.6 4.8 0.00 0.00 0.00 50 1010.9
20260508202004 26 256 0.0 3.2 0.00 0.00 0.00 53 1010.9
20260508201003 26 166 1.6 4.8 0.00 0.00 0.00 53 1010.9
20260508200504 26 271 0.0 4.8 0.00 0.00 0.00 53 1011.0
20260508200005 26 126 0.0 3.2 0.00 0.00 0.00 55 1011.1
20260508195002 26 116 0.0 3.2 0.00 0.00 0.00 57 1010.9
20260508194503 26 131 1.6 3.2 0.00 0.00 0.00 57 1011.1
20260508194004 26 100 1.6 3.2 0.00 0.00 0.00 54 1011.1
20260508193002 26 236 1.6 8.0 0.00 0.00 0.00 54 1011.1
20260508192503 26 129 1.6 3.2 0.00 0.00 0.00 55 1011.1
20260508192002 27 152 0.0 3.2 0.00 0.00 0.00 54 1011.1
20260508191502 27 269 0.0 3.2 0.00 0.00 0.00 53 1011.1
20260508191009 27 212 0.0 3.2 0.00 0.00 0.00 54 1011.1
20260508190502 27 228 0.0 3.2 0.00 0.00 0.00 54 1011.1
20260508185503 26 281 0.0 3.2 0.00 0.00 0.00 51 1011.1
20260508185002 27 124 0.0 3.2 0.00 0.00 0.00 47 1011.1
20260508184502 27 217 0.0 3.2 0.00 0.00 0.00 40 1011.1
20260508184003 26 262 1.6 3.2 0.00 0.00 0.00 37 1011.1
20260508183002 26 200 0.0 0.0 0.00 0.00 0.00 38 1011.1
20260508182503 26 198 0.0 1.6 0.00 0.00 0.00 44 1011.1
20260508182002 25 246 0.0 1.6 0.00 0.00 0.00 40 1011.1
20260508181501 25 126 0.0 1.6 0.00 0.00 0.00 40 1011.1
20260508181003 25 259 0.0 1.6 0.00 0.00 0.00 44 1011.2
20260508180501 24 151 0.0 1.6 0.00 0.00 0.00 45 1011.2
20260508180004 23 274 0.0 1.6 0.00 0.00 0.00 48 1011.1
20260508175503 23 276 0.0 1.6 0.00 0.00 0.00 46 1011.2
20260508175002 22 245 0.0 3.2 0.00 0.00 0.00 47 1011.2
20260508174501 22 219 0.0 3.2 0.00 0.00 0.00 45 1011.2
20260508174004 22 227 0.0 1.6 0.00 0.00 0.00 50 1011.1
20260508173501 22 139 0.0 1.6 0.00 0.00 0.00 48 1011.2
20260508173002 22 229 0.0 1.6 0.00 0.00 0.00 48 1011.3
20260508172503 22 257 0.0 1.6 0.00 0.00 0.00 47 1011.2
20260508172002 22 186 0.0 0.0 0.00 0.00 0.00 48 1011.2
20260508171501 22 185 0.0 0.0 0.00 0.00 0.00 47 1011.3
20260508171002 22 186 0.0 1.6 0.00 0.00 0.00 49 1011.2
20260508170005 21 261 0.0 3.2 0.00 0.00 0.00 51 1011.2
20260508165503 20 259 0.0 3.2 0.00 0.00 0.00 53 1011.2
20260508164502 19 259 0.0 1.6 0.00 0.00 0.00 58 1010.9
20260508164003 18 248 0.0 0.0 0.00 0.00 0.00 59 1010.9
20260508163002 17 248 0.0 0.0 0.00 0.00 0.00 60 1011.0
20260508162505 17 248 0.0 0.0 0.00 0.00 0.00 62 1011.0
20260508162002 17 248 0.0 1.6 0.00 0.00 0.00 65 1011.1
20260508161501 17 249 0.0 1.6 0.00 0.00 0.00 63 1011.0
20260508161004 16 170 0.0 0.0 0.00 0.00 0.00 66 1011.0
20260508160501 16 169 0.0 0.0 0.00 0.00 0.00 67 1011.0
20260508160005 16 170 0.0 0.0 0.00 0.00 0.00 67 1011.0
20260508155002 16 169 0.0 0.0 0.00 0.00 0.00 66 1011.0
20260508154501 16 170 0.0 0.0 0.00 0.00 0.00 67 1011.1
20260508154003 15 170 0.0 0.0 0.00 0.00 0.00 65 1011.0
20260508153502 15 170 0.0 0.0 0.00 0.00 0.00 65 1011.0
20260508153005 15 170 0.0 0.0 0.00 0.00 0.00 65 1010.9
20260508151502 15 170 0.0 0.0 0.00 0.00 0.00 64 1010.7
20260508151002 15 170 0.0 0.0 0.00 0.00 0.00 67 1010.7
20260508150500 15 169 0.0 0.0 0.00 0.00 0.00 67 1010.7
20260508150005 15 170 0.0 0.0 0.00 0.00 0.00 69 1010.6
20260508145502 14 170 0.0 0.0 0.00 0.00 0.00 69 1010.7
20260508145002 14 169 0.0 0.0 0.00 0.00 0.00 66 1010.7
20260508144502 14 170 0.0 0.0 0.00 0.00 0.00 67 1010.6
20260508144001 14 170 0.0 0.0 0.00 0.00 0.00 65 1010.5
20260508143502 14 169 0.0 0.0 0.00 0.00 0.00 64 1010.4
20260508143003 14 170 0.0 0.0 0.00 0.00 0.00 61 1010.4
20260508142502 14 170 0.0 0.0 0.00 0.00 0.00 60 1010.3
20260508142001 14 170 0.0 0.0 0.00 0.00 0.00 59 1010.4
20260508141505 14 170 0.0 0.0 0.00 0.00 0.00 58 1010.4
20260508141001 15 170 0.0 0.0 0.00 0.00 0.00 57 1010.3
20260508140502 15 170 0.0 0.0 0.00 0.00 0.00 56 1010.4
20260508140006 15 170 0.0 0.0 0.00 0.00 0.00 54 1010.4
20260508135501 15 170 0.0 0.0 0.00 0.00 0.00 53 1010.3
20260508135001 15 169 0.0 0.0 0.00 0.00 0.00 53 1010.3
20260508134002 14 170 0.0 0.0 0.00 0.00 0.00 57 1010.2
20260508133002 14 170 0.0 0.0 0.00 0.00 0.00 56 1010.2
20260508132502 13 169 0.0 0.0 0.00 0.00 0.00 55 1010.2
20260508132001 13 169 0.0 0.0 0.00 0.00 0.00 54 1010.2
20260508131502 13 170 0.0 0.0 0.00 0.00 0.00 56 1010.1
20260508131001 13 170 0.0 0.0 0.00 0.00 0.00 57 1010.0
20260508130502 13 170 0.0 0.0 0.00 0.00 0.00 59 1010.1
20260508125001 13 170 0.0 0.0 0.00 0.00 0.00 61 1009.9
20260508124503 14 170 0.0 0.0 0.00 0.00 0.00 61 1009.8
20260508124001 14 170 0.0 0.0 0.00 0.00 0.00 60 1009.9
20260508123502 14 170 0.0 0.0 0.00 0.00 0.00 59 1009.9
20260508123002 14 170 0.0 0.0 0.00 0.00 0.00 59 1009.9
20260508122501 14 170 0.0 0.0 0.00 0.00 0.00 61 1009.9
20260508122002 14 170 0.0 0.0 0.00 0.00 0.00 65 1009.9
20260508121502 14 169 0.0 0.0 0.00 0.00 0.00 68 1010.0
20260508121002 14 170 0.0 0.0 0.00 0.00 0.00 75 1009.9
20260508120501 15 169 0.0 0.0 0.00 0.00 0.00 82 1009.8
20260508120006 15 170 0.0 0.0 0.00 0.00 0.00 83 1009.8
20260508115502 15 170 0.0 0.0 0.00 0.00 0.00 83 1009.9
20260508115001 15 170 0.0 0.0 0.00 0.00 0.00 82 1009.9
20260508114503 15 170 0.0 0.0 0.00 0.00 0.00 80 1009.9
20260508114001 15 170 0.0 0.0 0.00 0.00 0.00 77 1009.9
20260508112501 15 170 0.0 0.0 0.00 0.00 0.00 78 1009.9
20260508111503 15 170 0.0 0.0 0.00 0.00 0.00 79 1009.8
20260508111001 15 170 0.0 0.0 0.00 0.00 0.00 79 1009.8
20260508110005 15 170 0.0 0.0 0.00 0.00 0.00 79 1009.8
20260508105501 15 170 0.0 0.0 0.00 0.00 0.00 79 1009.9
20260508104503 15 170 0.0 0.0 0.00 0.00 0.00 82 1010.0
20260508103003 15 170 0.0 0.0 0.00 0.00 0.00 78 1009.9
20260508102501 15 169 0.0 0.0 0.00 0.00 0.00 78 1010.0
20260508102002 15 170 0.0 0.0 0.00 0.00 0.00 80 1010.0
20260508101003 15 170 0.0 0.0 0.00 0.00 0.00 82 1010.0
20260508100501 15 169 0.0 0.0 0.00 0.00 0.00 83 1010.0
20260508100004 16 170 0.0 0.0 0.00 0.00 0.00 82 1009.9
20260508095501 16 170 0.0 0.0 0.00 0.00 0.00 82 1010.0
20260508095005 16 170 0.0 0.0 0.00 0.00 0.00 82 1010.1
20260508094502 16 169 0.0 0.0 0.00 0.00 0.00 81 1010.0
20260508094000 15 169 0.0 0.0 0.00 0.00 0.00 79 1010.0
20260508093502 15 170 0.0 0.0 0.00 0.00 0.00 77 1010.1
20260508093002 15 169 0.0 0.0 0.00 0.00 0.00 76 1010.1
20260508092501 15 169 0.0 0.0 0.00 0.00 0.00 74 1010.1
20260508092000 15 170 0.0 0.0 0.00 0.00 0.00 73 1010.2
20260508091502 15 170 0.0 0.0 0.00 0.00 0.00 72 1010.1
20260508091001 15 170 0.0 0.0 0.00 0.00 0.00 73 1010.1
20260508090501 15 170 0.0 0.0 0.00 0.00 0.00 74 1010.0
20260508090005 15 170 0.0 0.0 0.00 0.00 0.00 75 1010.0
20260508085501 15 170 0.0 0.0 0.00 0.00 0.00 75 1010.1
20260508085000 15 170 0.0 0.0 0.00 0.00 0.00 76 1010.1
20260508084503 15 170 0.0 0.0 0.00 0.00 0.00 77 1010.0
20260508084002 15 170 0.0 0.0 0.00 0.00 0.00 77 1010.1
20260508083501 15 170 0.0 0.0 0.00 0.00 0.00 77 1010.1
20260508083002 15 170 0.0 0.0 0.00 0.00 0.00 78 1010.1
20260508082502 15 170 0.0 0.0 0.00 0.00 0.00 79 1010.1
20260508082001 15 170 0.0 0.0 0.00 0.00 0.00 79 1010.1
20260508081002 15 169 0.0 0.0 0.00 0.00 0.00 80 1010.2
20260508080501 15 170 0.0 0.0 0.00 0.00 0.00 79 1010.3
20260508080004 15 170 0.0 0.0 0.00 0.00 0.00 78 1010.3
20260508075502 15 170 0.0 0.0 0.00 0.00 0.00 79 1010.2
20260508075003 15 170 0.0 0.0 0.00 0.00 0.00 79 1010.2
20260508074504 15 170 0.0 0.0 0.00 0.00 0.00 80 1010.1
20260508074004 15 170 0.0 0.0 0.00 0.00 0.00 81 1010.1
20260508072502 15 169 0.0 0.0 0.00 0.00 0.00 82 1010.2
20260508072004 15 169 0.0 0.0 0.00 0.00 0.00 83 1010.2
20260508071504 15 170 0.0 0.0 0.00 0.00 0.00 84 1010.1
20260508071003 15 169 0.0 0.0 0.00 0.00 0.00 84 1010.2
20260508070502 15 169 0.0 0.0 0.00 0.00 0.00 84 1010.1
20260508065503 15 170 0.0 0.0 0.00 0.00 0.00 85 1010.1
20260508064504 15 169 0.0 0.0 0.00 0.00 0.00 86 1010.1
20260508064002 15 170 0.0 0.0 0.00 0.00 0.00 86 1010.1
20260508063503 15 170 0.0 0.0 0.00 0.00 0.00 87 1010.1
20260508063005 15 170 0.0 0.0 0.00 0.00 0.00 87 1010.1
20260508062502 15 170 0.0 0.0 0.00 0.00 0.00 87 1010.3
20260508062002 15 169 0.0 0.0 0.00 0.00 0.00 87 1010.2
20260508061504 15 170 0.0 0.0 0.00 0.00 0.00 87 1010.3
20260508061005 15 170 0.0 0.0 0.00 0.00 0.00 87 1010.3
20260508060503 15 169 0.0 0.0 0.00 0.00 0.00 87 1010.3
20260508054503 15 170 0.0 0.0 0.00 0.00 0.00 88 1010.4
20260508054002 15 169 0.0 0.0 0.00 0.00 0.00 88 1010.3
20260508053005 15 170 0.0 0.0 0.00 0.00 0.00 87 1010.3
20260508052510 15 169 0.0 0.0 0.00 0.00 0.00 87 1010.4
20260508052002 15 170 0.0 0.0 0.00 0.00 0.00 87 1010.4
20260508051503 15 169 0.0 0.0 0.00 0.00 0.00 87 1010.4
20260508051003 16 170 0.0 0.0 0.00 0.00 0.00 87 1010.4
20260508050503 16 169 0.0 0.0 0.00 0.00 0.00 87 1010.4
20260508050007 16 169 0.0 0.0 0.00 0.00 0.00 87 1010.4
20260508045502 16 170 0.0 0.0 0.00 0.00 0.00 87 1010.6
20260508045002 16 169 0.0 0.0 0.00 0.00 0.00 86 1010.7
20260508044504 16 170 0.0 0.0 0.00 0.00 0.00 86 1010.7
20260508044003 16 170 0.0 0.0 0.00 0.00 0.00 85 1010.6
20260508043503 16 170 0.0 0.0 0.00 0.00 0.00 85 1010.5
20260508043005 16 170 0.0 0.0 0.00 0.00 0.00 85 1010.4
20260508042503 16 170 0.0 0.0 0.00 0.00 0.00 85 1010.3
20260508042002 16 170 0.0 0.0 0.00 0.00 0.00 85 1010.4
20260508041504 16 170 0.0 0.0 0.00 0.00 0.00 84 1010.3
20260508041003 16 169 0.0 0.0 0.00 0.00 0.00 84 1010.3
20260508040502 17 170 0.0 0.0 0.00 0.00 0.00 84 1010.3
20260508040005 17 170 0.0 0.0 0.00 0.00 0.00 83 1010.2
20260508035004 17 170 0.0 0.0 0.00 0.00 0.00 83 1010.1
20260508034002 17 170 0.0 0.0 0.00 0.00 0.00 82 1010.0
20260508032503 18 170 0.0 0.0 0.00 0.00 0.00 80 1009.9
20260508032002 18 170 0.0 0.0 0.00 0.00 0.00 79 1009.9
20260508031504 18 170 0.0 0.0 0.00 0.00 0.00 78 1009.9
20260508031003 18 169 0.0 0.0 0.00 0.00 0.00 77 1009.8
20260508030502 19 170 0.0 0.0 0.00 0.00 0.00 77 1009.8
20260508030006 19 170 0.0 0.0 0.00 0.00 0.00 76 1009.8
20260508025503 19 169 0.0 0.0 0.00 0.00 0.00 75 1009.7
20260508024504 20 170 0.0 0.0 0.00 0.00 0.00 73 1009.7
20260508024003 20 170 0.0 0.0 0.00 0.00 0.00 73 1009.6
20260508023503 20 170 0.0 0.0 0.00 0.00 0.00 72 1009.6
20260508023004 21 169 0.0 0.0 0.00 0.00 0.00 71 1009.5
20260508022502 21 170 0.0 0.0 0.00 0.00 0.00 70 1009.6
20260508022003 21 169 0.0 0.0 0.00 0.00 0.00 68 1009.5
20260508021503 21 169 0.0 0.0 0.00 0.00 0.00 68 1009.4
20260508020502 22 170 0.0 0.0 0.00 0.00 0.00 67 1009.4
20260508020006 22 170 0.0 0.0 0.00 0.00 0.00 66 1009.6
20260508015503 22 169 0.0 0.0 0.00 0.00 0.00 65 1009.5
20260508015002 22 170 0.0 0.0 0.00 0.00 0.00 63 1009.6
20260508014504 22 169 0.0 0.0 0.00 0.00 0.00 63 1009.6
20260508013502 23 170 0.0 0.0 0.00 0.00 0.00 62 1009.6
20260508013006 23 169 0.0 0.0 0.00 0.00 0.00 62 1009.5
20260508012502 23 169 0.0 0.0 0.00 0.00 0.00 59 1009.6
20260508012002 23 169 0.0 0.0 0.00 0.00 0.00 59 1009.6
20260508011504 23 169 0.0 0.0 0.00 0.00 0.00 57 1009.6
20260508011001 23 169 0.0 1.6 0.00 0.00 0.00 56 1009.6
20260508010502 24 170 0.0 1.6 0.00 0.00 0.00 55 1009.5
20260508010006 25 219 0.0 1.6 0.00 0.00 0.00 54 1009.6
20260508005503 25 219 0.0 1.6 0.00 0.00 0.00 55 1009.7